Weather History for Klamath Falls, OR

Change the Weather History Date:

Tuesday, January 14, 2014

  Actual Average Record
Temperature  
Mean Temperature 26 °F 30 °F  
Max Temperature 30 °F 39 °F 56 °F (1996)
Min Temperature 22 °F 21 °F -6 °F (1962)
Degree Days  
Heating Degree Days 39 35  
Month to date heating degree days 452 496  
Since 1 July heating degree days 3490 3397  
Cooling Degree Days 0 0  
Month to date cooling degree days 0 0  
Year to date cooling degree days 0 0  
Moisture  
Dew Point 24 °F    
Average Humidity 94    
Maximum Humidity 100    
Minimum Humidity 88    
Precipitation  
Precipitation T in 0.05 in 0.79 in (1956)
Month to date precipitation 0.10 1.13  
Year to date precipitation 0.10 1.13  
Sea Level Pressure  
Sea Level Pressure 30.70 in    
Wind  
Wind Speed 1 mph (North)    
Max Wind Speed 8 mph    
Max Gust Speed 10 mph    
Visibility 1 miles    
Events Fog , Snow    
T = Trace of Precipitation, MM = Missing Value Source: NWS Daily Summary

Daily Weather History Graph

Daily Weather History Graph

Search for Another Location

Airport:

Trip Planner

Search our weather history database for the weather conditions in past years. The results will help you decide how hot, cold, wet, or windy it might be!

Date:

Astronomy

Jan. 14, 2014 Rise Set
Actual Time 7:33 AM PST 4:59 PM PST
Civil Twilight 7:02 AM PST 5:30 PM PST
Nautical Twilight 6:27 AM PST 6:04 PM PST
Astronomical Twilight 5:54 AM PST 6:38 PM PST
Moon 4:09 PM PST (1/14) 6:11 AM PST (1/14)
Length of Visible Light 10h 27m
Length of Day
9h 25m
Waxing Gibbous, 98% of the Moon is Illuminated
Jan 14
Waxing Gibbous
Jan 15
Full
Jan 23
Last Quarter
Jan 30
New
Feb 6
First Quarter

Hourly Weather History & Observations

Time (PST) Temp. Windchill Dew Point Humidity Pressure Visibility Wind Dir Wind Speed Gust Speed Precip Events Conditions
12:07 AM 26.6 °F 22.6 °F 26.6 °F 100% 30.65 in 0.5 mi NNW 3.5 mph - N/A Fog Light Freezing Fog
12:17 AM 26.6 °F 19.1 °F 26.6 °F 100% 30.65 in 0.2 mi NNW 6.9 mph - N/A Fog Light Freezing Fog
12:24 AM 26.6 °F 19.1 °F 24.8 °F 93% 30.65 in 0.5 mi NW 6.9 mph - N/A Fog Light Freezing Fog
12:41 AM 26.6 °F 22.6 °F 26.6 °F 100% 30.64 in 0.2 mi NNE 3.5 mph - N/A Fog Light Freezing Fog
12:53 AM 26.1 °F 20.5 °F 26.1 °F 100% 30.72 in 0.2 mi North 4.6 mph - N/A Fog Light Freezing Fog
1:29 AM 26.6 °F 20.0 °F 24.8 °F 93% 30.63 in 0.2 mi North 5.8 mph - N/A Fog Light Freezing Fog
1:53 AM 26.1 °F 20.5 °F 24.1 °F 92% 30.71 in 0.5 mi North 4.6 mph - N/A Fog Light Freezing Fog
2:50 AM 26.6 °F 22.6 °F 24.8 °F 93% 30.66 in 0.2 mi ESE 3.5 mph - N/A Fog Light Freezing Fog
2:51 AM 26.1 °F 21.9 °F 24.1 °F 92% 30.73 in 0.2 mi East 3.5 mph - N/A Fog Light Freezing Fog
3:17 AM 26.6 °F - 24.8 °F 93% 30.66 in 0.2 mi Calm Calm - N/A Fog Light Freezing Fog
3:53 AM 26.1 °F - 25.0 °F 96% 30.75 in 0.5 mi Calm Calm - N/A Fog Light Freezing Fog
4:24 AM 26.6 °F - 24.8 °F 93% 30.67 in 0.2 mi Calm Calm - N/A Fog Light Freezing Fog
4:38 AM 26.6 °F - 23.0 °F 86% 30.67 in 0.5 mi Calm Calm - N/A Fog Light Freezing Fog
4:53 AM 26.1 °F - 24.1 °F 92% 30.74 in 0.5 mi Calm Calm - N/A Fog Light Freezing Fog
5:53 AM 25.0 °F 19.3 °F 23.0 °F 92% 30.75 in 0.8 mi ENE 4.6 mph - N/A   Mist
6:18 AM 24.8 °F - 23.0 °F 93% 30.67 in 0.2 mi Calm Calm - N/A Fog Light Freezing Fog
6:44 AM 24.8 °F 19.1 °F 23.0 °F 93% 30.69 in 0.5 mi East 4.6 mph - N/A Fog Light Freezing Fog
6:53 AM 25.0 °F 18.1 °F 23.0 °F 92% 30.78 in 0.5 mi ESE 5.8 mph - N/A Fog Light Freezing Fog
7:32 AM 24.8 °F - 23.0 °F 93% 30.70 in 0.2 mi Calm Calm - N/A Fog Light Freezing Fog
7:39 AM 24.8 °F - 24.8 °F 100% 30.70 in 0.5 mi Calm Calm - N/A Fog Light Freezing Fog
7:53 AM 24.1 °F - 21.9 °F 91% 30.79 in 0.2 mi Calm Calm - N/A Fog Light Freezing Fog
8:53 AM 25.0 °F - 23.0 °F 92% 30.80 in 0.2 mi Calm Calm - N/A Fog Light Freezing Fog
9:45 AM 24.8 °F - 23.0 °F 93% 30.71 in 0.2 mi Calm Calm - N/A Fog Light Freezing Fog
9:53 AM 26.1 °F - 23.0 °F 88% 30.81 in 0.2 mi Calm Calm - 0.00 in Fog , Snow Light Snow
10:01 AM 26.6 °F - 24.8 °F 93% 30.72 in 0.8 mi Calm Calm - 0.00 in   Mist
10:41 AM 24.8 °F 20.5 °F 23.0 °F 93% 30.72 in 0.2 mi NNW 3.5 mph - 0.00 in Fog Light Freezing Fog
10:48 AM 24.8 °F 19.1 °F 23.0 °F 93% 30.72 in 0.2 mi North 4.6 mph - 0.00 in Fog Light Freezing Fog
10:53 AM 25.0 °F - 24.1 °F 96% 30.81 in 0.2 mi Calm Calm - 0.00 in Fog Light Freezing Fog
11:23 AM 26.6 °F - 24.8 °F 93% 30.70 in 0.5 mi Calm Calm - N/A Fog Light Freezing Fog
11:40 AM 26.6 °F 21.2 °F 24.8 °F 93% 30.70 in 1.0 mi North 4.6 mph - 0.00 in   Overcast
11:53 AM 27.0 °F - 25.0 °F 92% 30.79 in 1.0 mi Calm Calm - 0.00 in   Overcast
12:00 PM 26.6 °F 22.6 °F 26.6 °F 100% 30.69 in 2.5 mi North 3.5 mph - N/A   Overcast
12:09 PM 26.6 °F - 24.8 °F 93% 30.68 in 1.5 mi Calm Calm - N/A   Overcast
12:53 PM 28.0 °F - 26.1 °F 92% 30.76 in 1.5 mi Calm Calm - N/A   Overcast
1:42 PM 28.4 °F 24.6 °F 26.6 °F 93% 30.66 in 0.5 mi NNE 3.5 mph - N/A Fog Light Freezing Fog
1:53 PM 28.9 °F 22.8 °F 27.0 °F 92% 30.74 in 0.5 mi NNW 5.8 mph - N/A Fog Light Freezing Fog
2:00 PM 28.4 °F 23.3 °F 26.6 °F 93% 30.66 in 1.0 mi North 4.6 mph - N/A   Overcast
2:53 PM 30.0 °F 25.2 °F 28.0 °F 92% 30.73 in 1.0 mi NNW 4.6 mph - N/A   Overcast
3:00 PM 28.4 °F 23.3 °F 26.6 °F 93% 30.65 in 5.0 mi NNW 4.6 mph - N/A   Overcast
3:07 PM 28.4 °F 22.2 °F 28.4 °F 100% 30.65 in 1.5 mi NNW 5.8 mph - N/A   Overcast
3:53 PM 28.9 °F - 28.0 °F 96% 30.73 in 1.5 mi Calm Calm - N/A   Mostly Cloudy
4:53 PM 28.0 °F - 27.0 °F 96% 30.74 in 0.5 mi Calm Calm - N/A Fog Light Freezing Fog
5:00 PM 28.4 °F 24.6 °F 26.6 °F 93% 30.65 in 0.2 mi NNW 3.5 mph - N/A Fog Light Freezing Fog
5:50 PM 26.6 °F - 24.8 °F 93% 30.65 in 0.2 mi Calm Calm - N/A Fog Light Freezing Fog
5:53 PM 26.1 °F - 25.0 °F 96% 30.74 in 0.2 mi Calm Calm - N/A Fog Light Freezing Fog
6:01 PM 24.8 °F - 24.8 °F 100% 30.64 in 0.2 mi Calm Calm - N/A Fog Light Freezing Fog
6:18 PM 24.8 °F 20.5 °F 24.8 °F 100% 30.64 in 0.5 mi NNW 3.5 mph - N/A Fog Light Freezing Fog
6:51 PM 24.8 °F 20.5 °F 23.0 °F 93% 30.64 in 0.2 mi NNW 3.5 mph - N/A Fog Light Freezing Fog
6:53 PM 24.1 °F 19.7 °F 23.0 °F 96% 30.74 in 0.2 mi NW 3.5 mph - N/A Fog Light Freezing Fog
7:19 PM 24.8 °F 17.9 °F 23.0 °F 93% 30.64 in 0.5 mi NNW 5.8 mph - N/A Fog Light Freezing Fog
7:30 PM 24.8 °F - 23.0 °F 93% 30.64 in 0.2 mi Calm Calm - N/A Fog Light Freezing Fog
7:35 PM 24.8 °F 20.5 °F 23.0 °F 93% 30.64 in 0.2 mi North 3.5 mph - N/A Fog Light Freezing Fog
7:53 PM 24.1 °F - 23.0 °F 96% 30.74 in 0.2 mi Calm Calm - N/A Fog Light Freezing Fog
8:53 PM 23.0 °F - 21.9 °F 96% 30.74 in 0.2 mi Calm Calm - N/A Fog Light Freezing Fog
9:01 PM 23.0 °F - 21.2 °F 93% 30.63 in 0.5 mi Calm Calm - N/A Fog Light Freezing Fog
9:20 PM 21.2 °F - 21.2 °F 100% 30.64 in 0.2 mi Calm Calm - N/A Fog Light Freezing Fog
9:44 PM 21.2 °F - 21.2 °F 100% 30.64 in 0.2 mi Calm Calm - N/A Fog Light Freezing Fog
9:53 PM 23.0 °F - 21.9 °F 96% 30.74 in 0.2 mi Calm Calm - N/A Fog Light Freezing Fog
10:53 PM 21.9 °F - 19.9 °F 92% 30.75 in 0.2 mi Calm Calm - N/A Fog Light Freezing Fog
11:53 PM 23.0 °F - 21.0 °F 92% 30.73 in 0.2 mi Calm Calm - N/A Fog Light Freezing Fog